Regional Weather Roundup
Issued by NWS

Home | Current Version | Previous Version | Graphics & Text | Print | Product List | Glossary On
Versions: 1 2 3 4 5 6 7 8 9 10 11 12 13 14 15 16 17 18 19 20 21 22 23 24 25 26 27 28 29 30 31 32 33 34 35 36 37 38 39 40 41 42 43 44 45 46 47 48 49 50
000
ASUS43 KLMK 190402
RWRKY
KENTUCKY REGIONAL WEATHER ROUNDUP
NATIONAL WEATHER SERVICE LOUISVILLE KY
1100 PM EST WED JAN 18 2017

NOTE "FAIR" INDICATES FEW OR NO CLOUDS BELOW 12,000 FEET
WITH NO SIGNIFICANT WEATHER AND/OR OBSTRUCTIONS TO VISIBILITY.

KYZ001>023-026-027-061>063-070>075-190500-
WESTERN AND SOUTH CENTRAL KENTUCKY

CITY           SKY/WX    TMP DP  RH WIND       PRES   REMARKS
PADUCAH        CLOUDY    44  39  82 SE7       30.08F
HENDERSON      MOCLDY    39  36  87 CALM      30.12F
OWENSBORO      MOCLDY    40  36  86 CALM      30.14S
HOPKINSVILLE   CLOUDY    45  41  88 NE6       30.09F
BOWLING GREEN  MOCLDY    43  39  86 CALM      30.13S
GLASGOW        NOT AVBL
$$

KYZ024-025-028>034-038-045-046-053-190500-
NORTH CENTRAL KENTUCKY

CITY           SKY/WX    TMP DP  RH WIND       PRES   REMARKS
LOUISVILLE/SDF CLOUDY    41  35  79 CALM      30.13F
LOUISVILLE/LOU CLOUDY    40  35  83 CALM      30.14F
FORT KNOX      MOCLDY    38  36  92 NE3       30.10F
$$

KYZ035>037-039>044-047>052-055>060-089>105-190500-
NORTHEAST KENTUCKY

CITY           SKY/WX    TMP DP  RH WIND       PRES   REMARKS
LEXINGTON      CLOUDY    36  33  89 CALM      30.13F
COVINGTON      CLOUDY    39  37  92 S6        30.13S WCI  35
FRANKFORT      MOCLDY    35  31  85 CALM      30.13S
$$

KYZ054-064>069-076>088-106>120-190500-
SOUTHEAST KENTUCKY

CITY           SKY/WX    TMP DP  RH WIND       PRES   REMARKS
JACKSON        CLOUDY    40  36  86 CALM      30.13F
LONDON         CLOUDY    38  35  89 CALM      30.13S
SOMERSET       NOT AVBL
MIDDLESBORO    PTCLDY    40  39  99 CALM      30.14F
MONTICELLO     CLOUDY    40  38  93 N8        30.13F WCI  34
$$




USA.gov is the U.S. government's official web portal to all federal, state and local government web resources and services.